Location: Clyde
(45.1830°S, 169.3170°E)
Time: 00:44:22
(UTC+12:00)

CZ-4B R/B - Visible Passes

Search period start: 25 September 2021 00:00
Search period end: 05 October 2021 01:00
Orbit: 809 x 881 km, 99.1° (Epoch: 23 September)

Date Brightness Start Highest point End Pass type
(mag) Time Alt. Az. Time Alt. Az. Time Alt. Az.
25 Sep 5.4 05:39:27 10° ENE 05:44:10 30° ESE 05:48:50 10° S visible
25 Sep 3.1 19:37:54 10° SSE 19:43:16 66° ENE 19:48:35 10° N visible
25 Sep 5.7 21:19:32 10° SSW 21:23:18 20° WSW 21:27:04 10° WNW visible
26 Sep 5.8 06:26:37 10° ENE 06:30:54 24° ESE 06:35:08 10° S visible
26 Sep 3.3 20:24:35 10° SSE 20:29:49 51° E 20:35:00 10° N visible
26 Sep 5.4 22:05:46 10° S 22:10:03 25° WSW 22:14:19 10° WNW visible
27 Sep 6.0 06:13:57 10° E 06:17:39 19° ESE 06:21:21 10° SSE visible
27 Sep 3.6 20:11:19 10° SSE 20:16:20 39° E 20:21:18 10° NNE visible
27 Sep 5.0 21:52:05 10° S 21:56:46 31° WSW 22:01:25 10° NW visible
28 Sep 6.2 06:01:29 10° E 06:04:27 15° SE 06:07:24 10° SSE visible
28 Sep 4.5 21:38:29 10° S 21:43:28 40° WSW 21:48:25 10° NW visible
29 Sep 6.4 05:49:26 10° ESE 05:51:16 12° SE 05:53:05 10° SSE visible
29 Sep 4.0 21:24:56 10° S 21:30:08 51° WSW 21:35:18 10° NW visible
30 Sep 3.6 21:11:26 10° S 21:16:46 67° WSW 21:22:04 10° NNW visible
30 Sep 6.4 22:54:50 10° SW 22:56:19 11° SW 22:57:48 10° WSW visible
01 Oct 3.2 20:57:58 10° SSE 21:03:23 86° WSW 21:08:45 10° NNW visible
01 Oct 6.1 22:40:24 10° SSW 22:43:08 14° SW 22:45:52 10° W visible
02 Oct 3.1 20:44:34 10° SSE 20:49:57 74° ENE 20:55:20 10° N visible
02 Oct 5.9 22:26:24 10° SSW 22:29:56 18° WSW 22:33:26 10° W visible
03 Oct 5.7 06:33:08 10° ENE 06:37:33 26° ESE 06:41:56 10° S visible
03 Oct 3.2 20:31:13 10° SSE 20:36:31 57° ENE 20:41:48 10° N visible
03 Oct 5.6 22:12:35 10° S 22:16:41 23° WSW 22:20:46 10° WNW visible
04 Oct 6.0 06:20:24 10° ENE 06:24:18 21° ESE 06:28:10 10° SSE visible
04 Oct 3.5 20:17:55 10° SSE 20:23:03 44° E 20:28:10 10° N visible
04 Oct 5.2 21:58:52 10° S 22:03:24 29° WSW 22:07:57 10° WNW visible
